Regional Weather Roundup
Issued by NWS

Home | Current Version | Previous Version | Graphics & Text | Print | Product List | Glossary On
Versions: 1 2 3 4 5 6 7 8 9 10 11 12 13 14 15 16 17 18 19 20 21 22 23 24 25 26 27 28 29 30 31 32 33 34 35 36 37 38 39 40 41 42 43 44 45 46 47 48 49 50
000
ASUS43 KOAX 311102
RWRNE

WEATHER ROUNDUP FOR NEBRASKA
NATIONAL WEATHER SERVICE OMAHA NE
600 AM CDT TUE MAY 31 2016

NOTES: SATELLITE DATA IS BEING USED TO AUGMENT CLOUD COVER ABOVE
       12000 FEET.
       "FAIR" INDICATES FEW OR NO CLOUDS BELOW 12,000 FEET WITH NO
       SIGNIFICANT WEATHER AND/OR OBSTRUCTIONS TO VISIBILITY.

  * THESE STATIONS DO NOT REPORT WEATHER SUCH AS RAIN...SNOW OR FOG.

NEZ001>004-019>022-054>056-311200-
NEBRASKA PANHANDLE

CITY           SKY/WX    TMP DP  RH WIND       PRES   REMARKS
SCOTTSBLUFF    CLOUDY    50  42  74 W8        30.09R
ALLIANCE       CLOUDY    50  46  86 NW8       30.06R
CHADRON        CLOUDY    48  42  80 SW6       30.07R
SIDNEY         CLEAR     47  45  93 NW10      30.09S
$$

NEZ057>060-069>072-079>082-311200-
SOUTHWEST NEBRASKA

CITY           SKY/WX    TMP DP  RH WIND       PRES   REMARKS
NORTH PLATTE   PTCLDY    51  47  86 N12       30.01F
IMPERIAL       CLEAR     52  48  86 N9        30.05R
LEXINGTON      CLOUDY    56  51  84 N10       30.00R
MCCOOK         CLOUDY    54  51  90 N7        30.01R
$$

NEZ005>010-023>029-035>040-094-311200-
NORTH CENTRAL NEBRASKA

CITY           SKY/WX    TMP DP  RH WIND       PRES   REMARKS
VALENTINE      CLEAR     47  43  86 W7        30.01R
AINSWORTH      CLEAR     49  46  89 W6        30.01R
BROKEN BOW     CLOUDY    54  49  83 N8        29.98F
ORD            CLOUDY    56  50  80 NW14      29.96R
$$

NEZ041-046>049-061>064-073>077-083>087-311200-
SOUTH CENTRAL NEBRASKA

CITY           SKY/WX    TMP DP  RH WIND       PRES   REMARKS
GRAND ISLAND   CLOUDY    60  58  92 NW6       29.97R
AURORA         CLOUDY    61  60  99 W3        29.95R
HASTINGS       CLOUDY    58  57  97 SW3       29.97R
KEARNEY *      CLOUDY    59  54  82 N13G20    29.99R
YORK           CLOUDY    61  59  94 W5        29.94R
$$

NEZ011>018-030>034-042>045-311200-
NORTHEAST NEBRASKA

CITY           SKY/WX    TMP DP  RH WIND       PRES   REMARKS
NORFOLK        CLOUDY    60  56  86 NW12      29.90F
ALBION         CLOUDY    58  55  91 NW9       29.93F
BLAIR          CLOUDY    65  58  77 N10       29.89S
FREMONT        CLOUDY    62  58  87 N5        29.89F
TEKAMAH        CLOUDY    63  58  83 NW5       29.90R
$$

NEZ050>053-065>068-078-088>093-311200-
SOUTHEAST NEBRASKA

CITY           SKY/WX    TMP DP  RH WIND       PRES   REMARKS
LINCOLN        CLOUDY    65  57  75 N6        29.92R
OMAHA EPPLEY   CLOUDY    67  62  84 CALM      29.89R
BEATRICE       CLOUDY    61  58  90 W8        29.93R
FALLS CITY     LGT RAIN  65  60  84 S10       29.89R
NEBRASKA CITY  CLOUDY    64  64 100 S7        29.88F
PLATTSMOUTH    CLOUDY    65  64  94 SE6       29.88S
$$

NEZ044-045-051>053-067-311200-
OMAHA AREA

CITY           SKY/WX    TMP DP  RH WIND       PRES   REMARKS
OMAHA EPPLEY   CLOUDY    67  62  84 CALM      29.89R
BLAIR          CLOUDY    65  58  77 N10       29.89S
FREMONT        CLOUDY    62  58  87 N5        29.89F
PLATTSMOUTH    CLOUDY    65  64  94 SE6       29.88S
WAHOO          FAIR      64  58  81 N8        29.88S
$$




USA.gov is the U.S. government's official web portal to all federal, state and local government web resources and services.